Weather History for Lordsburg, NM

Change the Weather History Date:

Friday, February 8, 2013

  Actual Average Record
Temperature  
Mean Temperature 54 °F -  
Max Temperature 68 °F 60 °F 68 °F (2013)
Min Temperature 41 °F 26 °F 30 °F (2014)
Degree Days  
Heating Degree Days 10    
Growing Degree Days 4 (Base 50)    
Moisture  
Dew Point 18 °F    
Average Humidity 30    
Maximum Humidity 53    
Minimum Humidity 9    
Precipitation  
Precipitation 0.00 in - - ()
Sea Level Pressure  
Sea Level Pressure 29.94 in    
Wind  
Wind Speed 12 mph (South)    
Max Wind Speed 23 mph    
Max Gust Speed 30 mph    
Visibility 10 miles    
Events      
Averages and records for this station are not official NWS values.
T = Trace of Precipitation, MM = Missing Value Source: NWS Daily Summary

Daily Weather History Graph

Daily Weather History Graph

Search for Another Location

Airport:

Trip Planner

Search our weather history database for the weather conditions in past years. The results will help you decide how hot, cold, wet, or windy it might be!

Date:

Astronomy

Feb. 08, 2013 Rise Set
Actual Time 7:03 AM MST 5:54 PM MST
Civil Twilight 6:38 AM MST 6:20 PM MST
Nautical Twilight 6:09 AM MST 6:49 PM MST
Astronomical Twilight 5:40 AM MST 7:18 PM MST
Moon 5:31 AM MST (2/8) 4:33 PM MST (2/8)
Length of Visible Light 11h 42m
Length of Day
10h 51m
Waning Crescent, 3% of the Moon is Illuminated
Feb 8
Waning Crescent
Feb 10
New
Feb 17
First Quarter
Feb 25
Full
Mar 4
Last Quarter

Hourly Weather History & Observations

Time (MST) Temp. Windchill Dew Point Humidity Pressure Visibility Wind Dir Wind Speed Gust Speed Precip Events Conditions
12:15 AM 44.6 °F 39.7 °F 23.0 °F 43% 30.06 in 10.0 mi South 9.2 mph - N/A   Clear
12:35 AM 44.6 °F 40.2 °F 23.0 °F 43% 30.06 in 10.0 mi SSE 8.1 mph - N/A   Clear
12:55 AM 44.6 °F 39.7 °F 23.0 °F 43% 30.06 in 10.0 mi SSE 9.2 mph - N/A   Clear
1:15 AM 44.6 °F 39.2 °F 23.0 °F 43% 30.06 in 10.0 mi SSE 10.4 mph - N/A   Clear
1:35 AM 44.6 °F 38.8 °F 23.0 °F 43% 30.06 in 10.0 mi SSE 11.5 mph - N/A   Clear
1:55 AM 44.6 °F 38.8 °F 23.0 °F 43% 30.06 in 10.0 mi SSE 11.5 mph - N/A   Clear
2:35 AM 44.6 °F 39.2 °F 23.0 °F 43% 30.04 in 10.0 mi SSE 10.4 mph - N/A   Clear
2:55 AM 42.8 °F 37.0 °F 23.0 °F 46% 30.03 in 10.0 mi SSE 10.4 mph - N/A   Clear
3:15 AM 42.8 °F 37.0 °F 24.8 °F 49% 30.04 in 10.0 mi SSE 10.4 mph - N/A   Clear
3:35 AM 42.8 °F 37.0 °F 24.8 °F 49% 30.04 in 10.0 mi SSE 10.4 mph - N/A   Clear
3:55 AM 42.8 °F 36.6 °F 24.8 °F 49% 30.03 in 10.0 mi SSE 11.5 mph - N/A   Clear
4:15 AM 42.8 °F 36.6 °F 24.8 °F 49% 30.02 in 10.0 mi SSE 11.5 mph - N/A   Clear
4:35 AM 41.0 °F 33.5 °F 24.8 °F 53% 30.02 in 10.0 mi SSE 13.8 mph - N/A   Clear
4:55 AM 41.0 °F 33.9 °F 24.8 °F 53% 30.02 in 10.0 mi SSE 12.7 mph - N/A   Clear
5:15 AM 42.8 °F 36.2 °F 24.8 °F 49% 30.02 in 10.0 mi SSE 12.7 mph - N/A   Clear
5:35 AM 42.8 °F 36.2 °F 24.8 °F 49% 30.02 in 10.0 mi SSE 12.7 mph - N/A   Clear
5:55 AM 41.0 °F 33.9 °F 24.8 °F 53% 30.02 in 10.0 mi SSE 12.7 mph - N/A   Clear
6:15 AM 41.0 °F 34.3 °F 24.8 °F 53% 30.02 in 10.0 mi SSE 11.5 mph - N/A   Clear
6:35 AM 41.0 °F 34.3 °F 24.8 °F 53% 30.02 in 10.0 mi SSE 11.5 mph - N/A   Clear
6:55 AM 42.8 °F 36.2 °F 23.0 °F 46% 30.01 in 10.0 mi SSE 12.7 mph - N/A   Clear
7:15 AM 42.8 °F 35.8 °F 23.0 °F 46% 30.01 in 10.0 mi SSE 13.8 mph - N/A   Clear
7:35 AM 42.8 °F 36.2 °F 23.0 °F 46% 30.01 in 10.0 mi SSE 12.7 mph - N/A   Clear
7:55 AM 42.8 °F 36.2 °F 24.8 °F 49% 30.02 in 10.0 mi SSE 12.7 mph - N/A   Clear
8:15 AM 42.8 °F 35.8 °F 24.8 °F 49% 30.02 in 10.0 mi SSE 13.8 mph - N/A   Clear
8:35 AM 46.4 °F 39.8 °F 26.6 °F 46% 30.02 in 10.0 mi SE 16.1 mph 19.6 mph N/A   Clear
8:55 AM 50.0 °F - 24.8 °F 37% 30.02 in 10.0 mi SE 20.7 mph 28.8 mph N/A   Clear
9:15 AM 51.8 °F - 26.6 °F 38% 30.02 in 10.0 mi SE 20.7 mph 27.6 mph N/A   Clear
9:35 AM 51.8 °F - 24.8 °F 35% 30.01 in 10.0 mi ESE 21.9 mph 28.8 mph N/A   Clear
9:55 AM 53.6 °F - 26.6 °F 35% 30.01 in 10.0 mi ESE 23.0 mph 28.8 mph N/A   Clear
10:15 AM 55.4 °F - 26.6 °F 33% 30.00 in 10.0 mi SE 23.0 mph 29.9 mph N/A   Clear
10:35 AM 53.6 °F - 24.8 °F 33% 30.00 in 10.0 mi ESE 18.4 mph 28.8 mph N/A   Clear
11:15 AM 55.4 °F - 26.6 °F 33% 29.99 in 10.0 mi SE 20.7 mph 26.5 mph N/A   Clear
11:35 AM 59.0 °F - 26.6 °F 29% 29.98 in 10.0 mi SE 19.6 mph 26.5 mph N/A   Clear
11:55 AM 59.0 °F - 26.6 °F 29% 29.97 in 10.0 mi SE 13.8 mph 23.0 mph N/A   Clear
12:15 PM 62.6 °F - 26.6 °F 26% 29.95 in 10.0 mi ESE 15.0 mph 23.0 mph N/A   Clear
12:35 PM 62.6 °F - 26.6 °F 26% 29.94 in 10.0 mi ESE 15.0 mph 24.2 mph N/A   Clear
12:55 PM 64.4 °F - 24.8 °F 22% 29.92 in 10.0 mi SSE 9.2 mph 18.4 mph N/A   Clear
1:15 PM 64.4 °F - 24.8 °F 22% 29.90 in 10.0 mi East 13.8 mph 20.7 mph N/A   Clear
1:35 PM 64.4 °F - 24.8 °F 22% 29.89 in 10.0 mi SSE 8.1 mph - N/A   Clear
1:55 PM 68.0 °F - 14.0 °F 12% 29.88 in 10.0 mi SW 15.0 mph 20.7 mph N/A   Clear
2:15 PM 66.2 °F - 12.2 °F 12% 29.87 in 10.0 mi SSW 9.2 mph 18.4 mph N/A   Clear
2:35 PM 66.2 °F - 14.0 °F 13% 29.86 in 10.0 mi South 15.0 mph 21.9 mph N/A   Clear
2:55 PM 66.2 °F - 14.0 °F 13% 29.86 in 10.0 mi SSW 11.5 mph - N/A   Clear
3:15 PM 66.2 °F - 15.8 °F 14% 29.85 in 10.0 mi WSW 10.4 mph 19.6 mph N/A   Clear
3:35 PM 66.2 °F - 14.0 °F 13% 29.85 in 10.0 mi SW 11.5 mph 17.3 mph N/A   Clear
3:55 PM 66.2 °F - 14.0 °F 13% 29.84 in 10.0 mi West 12.7 mph - N/A   Clear
4:35 PM 64.4 °F - 3.2 °F 9% 29.83 in 10.0 mi WSW 13.8 mph 21.9 mph N/A   Clear
4:55 PM 64.4 °F - 5.0 °F 10% 29.83 in 10.0 mi West 15.0 mph 19.6 mph N/A   Clear
5:15 PM 62.6 °F - 8.6 °F 12% 29.84 in 10.0 mi WSW 10.4 mph - N/A   Clear
5:35 PM 62.6 °F - 8.6 °F 12% 29.84 in 10.0 mi SSW 12.7 mph - N/A   Clear
5:55 PM 60.8 °F - 8.6 °F 13% 29.84 in 10.0 mi SW 10.4 mph - N/A   Clear
6:15 PM 59.0 °F - 8.6 °F 14% 29.84 in 10.0 mi SSW 10.4 mph - N/A   Clear
6:35 PM 57.2 °F - 10.4 °F 16% 29.84 in 10.0 mi SSW 6.9 mph - N/A   Clear
6:55 PM 59.0 °F - 8.6 °F 14% 29.84 in 10.0 mi SSW 12.7 mph 17.3 mph N/A   Clear
7:15 PM 59.0 °F - 12.2 °F 16% 29.84 in 10.0 mi SSW 12.7 mph 20.7 mph N/A   Clear
7:35 PM 59.0 °F - 12.2 °F 16% 29.85 in 10.0 mi SSW 12.7 mph 19.6 mph N/A   Clear
7:55 PM 59.0 °F - 10.4 °F 15% 29.85 in 10.0 mi SSW 11.5 mph 16.1 mph N/A   Clear
8:15 PM 57.2 °F - 10.4 °F 16% 29.84 in 10.0 mi South 12.7 mph 18.4 mph N/A   Clear
8:35 PM 57.2 °F - 8.6 °F 14% 29.84 in 10.0 mi South 17.3 mph 21.9 mph N/A   Clear
8:55 PM 57.2 °F - 6.8 °F 13% 29.84 in 10.0 mi SSW 16.1 mph 23.0 mph N/A   Clear
9:15 PM 55.4 °F - 8.6 °F 15% 29.83 in 10.0 mi SSW 16.1 mph 21.9 mph N/A   Clear
9:35 PM 55.4 °F - 8.6 °F 15% 29.83 in 10.0 mi SSW 17.3 mph 25.3 mph N/A   Clear
9:55 PM 55.4 °F - 6.8 °F 14% 29.83 in 10.0 mi SSW 16.1 mph 21.9 mph N/A   Clear
10:15 PM 55.4 °F - 6.8 °F 14% 29.83 in 10.0 mi SSW 16.1 mph 19.6 mph N/A   Clear
10:35 PM 55.4 °F - 6.8 °F 14% 29.83 in 10.0 mi SSW 17.3 mph 26.5 mph N/A   Clear
10:55 PM 53.6 °F - 10.4 °F 18% 29.82 in 10.0 mi SSW 11.5 mph 23.0 mph N/A   Clear
11:15 PM 53.6 °F - 12.2 °F 19% 29.82 in 10.0 mi SSW 10.4 mph 16.1 mph N/A   Clear
11:35 PM 53.6 °F - 14.0 °F 21% 29.81 in 10.0 mi SSW 9.2 mph - N/A   Clear
11:55 PM 51.8 °F - 15.8 °F 24% 29.81 in 10.0 mi SSW 12.7 mph 18.4 mph N/A   Clear